This is the latest recevied weather packets stored in our database for station/object KF4ERV-4. If no packets are shown the sender has not sent any weather packets the latest 10 day(s).
| Time | Temp. | Humidity | Pressure | Rain* | Wind** | Luminosity | Snow |
|---|---|---|---|---|---|---|---|
| 1787555074 | 17.78° C | 40% | 1017.4 hPa | 0 mm | - | - | - |
| 1787554775 | 17.78° C | 40% | 1017 hPa | 0 mm | - | - | - |
| 1787554656 | 17.78° C | 43% | 1016.9 hPa | 0 mm | - | - | - |
| 1787554467 | 17.78° C | 43% | 1016.9 hPa | 0 mm | - | - | - |
| 1787554364 | 17.78° C | 43% | 1017.1 hPa | 0 mm | - | - | - |
| 1787554171 | 17.78° C | 43% | 1017.1 hPa | 0 mm | - | - | - |
| 1787554074 | 17.78° C | 41% | 1017.1 hPa | 0 mm | - | - | - |
| 1787553876 | 17.78° C | 41% | 1017.1 hPa | 0 mm | - | - | - |
| 1787553785 | 17.78° C | 46% | 1017.1 hPa | 0 mm | - | - | - |
| 1787553268 | 17.78° C | 46% | 1017 hPa | 0 mm | - | - | - |
| 1787553205 | 17.78° C | 50% | 1017.1 hPa | 0 mm | - | - | - |
| 1787552971 | 17.78° C | 50% | 1017.1 hPa | 0 mm | - | - | - |
| 1787552914 | 18.33° C | 53% | 1017.6 hPa | 0 mm | - | - | - |
| 1787552674 | 18.33° C | 53% | 1017.6 hPa | 0 mm | - | - | - |
| 1787552625 | 18.33° C | 52% | 1017.4 hPa | 0 mm | - | - | - |
| 1787552367 | 18.33° C | 52% | 1017.4 hPa | 0 mm | - | - | - |
| 1787552045 | 18.33° C | 62% | 1016.9 hPa | 0 mm | - | - | - |
| 1787551476 | 18.33° C | 42% | 1016.9 hPa | 0 mm | - | - | - |
| 1787550872 | 18.33° C | 8% | 1017 hPa | 0 mm | - | - | - |
| 1787550597 | 18.33° C | 10% | 1017 hPa | 0 mm | - | - | - |
| 1787549968 | 18.89° C | 22% | 1016.9 hPa | 0 mm | - | - | - |
| 1787549674 | 18.89° C | 24% | 1017 hPa | 0 mm | - | - | - |
| 1787549144 | 18.89° C | 32% | 1016.9 hPa | 0 mm | - | - | - |
| 1787549068 | 18.89° C | 32% | 1016.9 hPa | 0 mm | - | - | - |
| 1787548854 | 18.89° C | 34% | 1017 hPa | 0 mm | - | - | - |
* Rain latest hour (hover to see other rain measurements)
** Current wind speed in m/s (hover to see current wind gust speed)